Weather History for Mackinac Island, MI

Change the Weather History Date:

Saturday, December 7, 2013

  Actual Average Record
Temperature  
Mean Temperature 16 °F -  
Max Temperature 19 °F 34 °F 43 °F (1988)
Min Temperature 13 °F 26 °F 5 °F (1976)
Degree Days  
Heating Degree Days 49    
Moisture  
Dew Point 9 °F    
Average Humidity 70    
Maximum Humidity 85    
Minimum Humidity 54    
Precipitation  
Precipitation 0.00 in - - ()
Sea Level Pressure  
Sea Level Pressure 30.41 in    
Wind  
Wind Speed 15 mph (West)    
Max Wind Speed 22 mph    
Max Gust Speed 29 mph    
Visibility 10 miles    
Events Snow    
Averages and records for this station are not official NWS values.
T = Trace of Precipitation, MM = Missing Value Source: NWS Daily Summary

Daily Weather History Graph

Daily Weather History Graph

Search for Another Location

Airport:

Trip Planner

Search our weather history database for the weather conditions in past years. The results will help you decide how hot, cold, wet, or windy it might be!

Date:

Astronomy

Dec. 07, 2013 Rise Set
Actual Time 8:06 AM EST 4:53 PM EST
Civil Twilight 7:32 AM EST 5:28 PM EST
Nautical Twilight 6:54 AM EST 6:05 PM EST
Astronomical Twilight 6:18 AM EST 6:41 PM EST
Moon 11:39 AM EST (12/7) 10:47 PM EST (12/7)
Length of Visible Light 9h 55m
Length of Day
8h 47m
Waxing Crescent, 29% of the Moon is Illuminated
Dec 7
Waxing Crescent
Dec 9
First Quarter
Dec 17
Full
Dec 25
Last Quarter
Jan 1
New

Hourly Weather History & Observations

Time (EST) Temp. Windchill Dew Point Humidity Pressure Visibility Wind Dir Wind Speed Gust Speed Precip Events Conditions
12:14 AM 19.4 °F 7.9 °F 10.9 °F 70% 30.29 in 10.0 mi West 10.4 mph 20.7 mph N/A   Scattered Clouds
12:35 AM 19.2 °F 5.8 °F 10.6 °F 69% 30.29 in 10.0 mi West 13.8 mph 21.9 mph N/A   Scattered Clouds
12:55 AM 19.0 °F 5.6 °F 11.5 °F 72% 30.29 in 10.0 mi West 13.8 mph 23.0 mph N/A   Mostly Cloudy
1:14 AM 18.5 °F 4.3 °F 12.4 °F 77% 30.30 in 10.0 mi West 15.0 mph 20.7 mph N/A   Mostly Cloudy
1:35 AM 18.3 °F 5.2 °F 12.0 °F 76% 30.29 in 10.0 mi West 12.7 mph 19.6 mph N/A   Mostly Cloudy
1:55 AM 18.3 °F 4.1 °F 12.2 °F 77% 30.30 in 10.0 mi West 15.0 mph 20.7 mph N/A   Mostly Cloudy
2:14 AM 18.0 °F 4.2 °F 12.2 °F 78% 30.30 in 10.0 mi West 13.8 mph 17.3 mph N/A   Scattered Clouds
2:35 AM 17.6 °F 2.7 °F 12.6 °F 81% 30.31 in 10.0 mi West 16.1 mph 24.2 mph N/A   Mostly Cloudy
2:55 AM 17.4 °F 4.1 °F 12.7 °F 82% 30.32 in 10.0 mi West 12.7 mph 23.0 mph N/A   Mostly Cloudy
3:14 AM 17.2 °F 2.2 °F 13.1 °F 84% 30.32 in 10.0 mi West 16.1 mph 21.9 mph N/A   Scattered Clouds
3:35 AM 16.7 °F 2.6 °F 12.9 °F 85% 30.33 in 10.0 mi West 13.8 mph 20.7 mph N/A   Mostly Cloudy
3:55 AM 16.7 °F 0.5 °F 12.2 °F 82% 30.33 in 10.0 mi West 18.4 mph 23.0 mph N/A   Scattered Clouds
4:14 AM 16.7 °F 1.0 °F 11.3 °F 79% 30.33 in 10.0 mi West 17.3 mph 23.0 mph N/A   Mostly Cloudy
4:35 AM 16.7 °F 1.5 °F 11.3 °F 79% 30.34 in 10.0 mi West 16.1 mph 21.9 mph N/A   Overcast
4:54 AM 16.3 °F 2.1 °F 10.2 °F 77% 30.35 in 10.0 mi West 13.8 mph 21.9 mph N/A   Overcast
5:14 AM 16.2 °F 1.9 °F 10.2 °F 77% 30.35 in 10.0 mi West 13.8 mph 19.6 mph N/A   Mostly Cloudy
5:35 AM 16.0 °F 1.7 °F 9.9 °F 77% 30.36 in 10.0 mi West 13.8 mph 20.7 mph N/A   Mostly Cloudy
5:54 AM 15.8 °F 1.4 °F 9.5 °F 76% 30.37 in 10.0 mi West 13.8 mph 21.9 mph N/A   Scattered Clouds
6:14 AM 15.6 °F 0.6 °F 9.3 °F 76% 30.36 in 10.0 mi West 15.0 mph 24.2 mph N/A   Scattered Clouds
6:35 AM 15.4 °F 2.3 °F 8.8 °F 75% 30.37 in 10.0 mi WNW 11.5 mph 20.7 mph N/A   Scattered Clouds
6:54 AM 15.4 °F 1.6 °F 9.3 °F 77% 30.37 in 10.0 mi WNW 12.7 mph 21.9 mph N/A   Scattered Clouds
7:14 AM 14.9 °F 2.3 °F 9.5 °F 79% 30.38 in 10.0 mi WNW 10.4 mph 18.4 mph N/A   Scattered Clouds
7:35 AM 15.3 °F 0.8 °F 9.3 °F 77% 30.38 in 10.0 mi West 13.8 mph 19.6 mph N/A   Scattered Clouds
7:54 AM 15.4 °F 1.6 °F 9.3 °F 77% 30.39 in 10.0 mi WNW 12.7 mph 23.0 mph N/A   Mostly Cloudy
8:14 AM 14.9 °F 0.3 °F 9.3 °F 79% 30.39 in 10.0 mi West 13.8 mph 23.0 mph N/A   Mostly Cloudy
8:35 AM 14.9 °F -0.8 °F 8.2 °F 75% 30.40 in 10.0 mi West 16.1 mph 25.3 mph N/A   Scattered Clouds
8:54 AM 15.3 °F 0.8 °F 9.0 °F 76% 30.40 in 10.0 mi West 13.8 mph 21.9 mph N/A   Scattered Clouds
9:14 AM 14.9 °F -0.3 °F 9.5 °F 79% 30.41 in 10.0 mi West 15.0 mph 20.7 mph N/A   Scattered Clouds
9:35 AM 15.8 °F 0.3 °F 9.7 °F 77% 30.42 in 10.0 mi West 16.1 mph 24.2 mph N/A   Mostly Cloudy
9:54 AM 16.3 °F 0.5 °F 9.7 °F 75% 30.42 in 10.0 mi West 17.3 mph 26.5 mph N/A   Mostly Cloudy
10:15 AM 16.7 °F -0.3 °F 9.1 °F 72% 30.43 in 10.0 mi West 20.7 mph 26.5 mph N/A   Mostly Cloudy
10:34 AM 17.4 °F 0.2 °F 8.8 °F 69% 30.43 in 10.0 mi West 21.9 mph 27.6 mph N/A   Mostly Cloudy
10:54 AM 17.4 °F 1.5 °F 8.8 °F 69% 30.44 in 10.0 mi West 18.4 mph 26.5 mph N/A   Mostly Cloudy
11:15 AM 16.9 °F 1.2 °F 8.2 °F 69% 30.44 in 10.0 mi West 17.3 mph 26.5 mph N/A   Mostly Cloudy
11:34 AM 18.3 °F 4.6 °F 9.3 °F 68% 30.44 in 10.0 mi West 13.8 mph 21.9 mph N/A   Mostly Cloudy
11:54 AM 17.4 °F 1.0 °F 7.3 °F 65% 30.44 in 10.0 mi West 19.6 mph 28.8 mph N/A   Mostly Cloudy
12:15 PM 17.2 °F 0.4 °F 7.5 °F 66% 30.44 in 10.0 mi West 20.7 mph 26.5 mph N/A   Mostly Cloudy
12:34 PM 17.6 °F 2.2 °F 7.7 °F 65% 30.44 in 10.0 mi West 17.3 mph 25.3 mph N/A   Mostly Cloudy
12:54 PM 17.8 °F 2.9 °F 7.5 °F 64% 30.45 in 10.0 mi WSW 16.1 mph 26.5 mph N/A   Mostly Cloudy
1:15 PM 17.4 °F 1.5 °F 6.8 °F 63% 30.45 in 10.0 mi West 18.4 mph 24.2 mph N/A   Mostly Cloudy
1:34 PM 17.1 °F 1.5 °F 8.2 °F 68% 30.45 in 10.0 mi West 17.3 mph 24.2 mph N/A   Mostly Cloudy
1:54 PM 17.6 °F 1.7 °F 9.0 °F 69% 30.44 in 10.0 mi West 18.4 mph 26.5 mph N/A   Overcast
2:15 PM 17.2 °F 1.7 °F 7.5 °F 66% 30.44 in 10.0 mi West 17.3 mph 25.3 mph N/A   Mostly Cloudy
2:34 PM 18.3 °F 3.1 °F 8.6 °F 66% 30.43 in 10.0 mi West 17.3 mph 23.0 mph N/A   Mostly Cloudy
2:55 PM 18.5 °F 2.9 °F 8.6 °F 65% 30.43 in 10.0 mi West 18.4 mph 24.2 mph N/A   Overcast
3:14 PM 17.6 °F 3.7 °F 7.3 °F 64% 30.44 in 10.0 mi West 13.8 mph 24.2 mph N/A   Mostly Cloudy
3:34 PM 18.0 °F 2.6 °F 7.9 °F 65% 30.45 in 10.0 mi West 17.3 mph 25.3 mph N/A   Mostly Cloudy
3:55 PM 17.6 °F 2.2 °F 7.5 °F 65% 30.45 in 10.0 mi West 17.3 mph 25.3 mph N/A   Mostly Cloudy
4:14 PM 17.2 °F 2.2 °F 7.0 °F 64% 30.46 in 10.0 mi West 16.1 mph 26.5 mph N/A   Scattered Clouds
4:34 PM 17.2 °F 2.2 °F 5.9 °F 61% 30.46 in 10.0 mi West 16.1 mph 26.5 mph N/A   Scattered Clouds
4:55 PM 17.2 °F 1.2 °F 6.6 °F 63% 30.45 in 10.0 mi West 18.4 mph - N/A   Clear
5:14 PM 17.2 °F 2.2 °F 5.2 °F 59% 30.46 in 10.0 mi West 16.1 mph 24.2 mph N/A   Clear
5:34 PM 17.2 °F 2.2 °F 5.2 °F 59% 30.47 in 10.0 mi West 16.1 mph 25.3 mph N/A   Scattered Clouds
5:55 PM 17.4 °F 1.9 °F 5.9 °F 61% 30.46 in 10.0 mi West 17.3 mph 24.2 mph N/A   Mostly Cloudy
6:14 PM 17.6 °F 4.3 °F 6.3 °F 61% 30.47 in 10.0 mi West 12.7 mph 20.7 mph N/A   Overcast
6:34 PM 17.6 °F 2.7 °F 6.6 °F 62% 30.47 in 10.0 mi West 16.1 mph 19.6 mph N/A   Overcast
6:55 PM 18.1 °F 3.9 °F 7.3 °F 63% 30.47 in 10.0 mi West 15.0 mph 20.7 mph N/A   Overcast
7:14 PM 18.1 °F 5.0 °F 5.9 °F 59% 30.47 in 10.0 mi WSW 12.7 mph 23.0 mph N/A   Overcast
7:35 PM 18.1 °F 2.9 °F 5.4 °F 57% 30.47 in 10.0 mi West 17.3 mph 26.5 mph N/A   Overcast
7:54 PM 18.5 °F 2.4 °F 6.4 °F 59% 30.47 in 10.0 mi West 19.6 mph 24.2 mph N/A   Overcast
8:14 PM 18.5 °F 1.6 °F 6.8 °F 60% 30.47 in 10.0 mi West 21.9 mph 25.3 mph N/A   Overcast
8:35 PM 18.5 °F 3.8 °F 7.2 °F 61% 30.47 in 10.0 mi West 16.1 mph 24.2 mph N/A   Overcast
8:54 PM 18.9 °F 5.9 °F 7.0 °F 60% 30.47 in 10.0 mi WSW 12.7 mph 21.9 mph N/A   Overcast
9:14 PM 18.5 °F 4.3 °F 5.5 °F 57% 30.47 in 10.0 mi West 15.0 mph 24.2 mph N/A   Mostly Cloudy
9:35 PM 18.5 °F 3.8 °F 4.3 °F 54% 30.46 in 10.0 mi West 16.1 mph 23.0 mph N/A   Mostly Cloudy
9:54 PM 18.5 °F 6.1 °F 6.1 °F 58% 30.46 in 10.0 mi WNW 11.5 mph 21.9 mph N/A   Overcast
10:14 PM 17.1 °F 5.8 °F 8.6 °F 69% 30.46 in 10.0 mi NW 9.2 mph - N/A   Overcast
10:35 PM 15.8 °F 4.2 °F 8.4 °F 73% 30.45 in 10.0 mi NW 9.2 mph - N/A   Overcast
10:54 PM 14.9 °F 3.1 °F 7.3 °F 72% 30.45 in 10.0 mi NW 9.2 mph - N/A   Overcast
11:14 PM 13.8 °F 1.8 °F 5.7 °F 70% 30.46 in 10.0 mi NW 9.2 mph - N/A   Overcast
11:35 PM 13.5 °F 0.5 °F 5.4 °F 70% 30.46 in 10.0 mi NW 10.4 mph 17.3 mph N/A   Overcast
11:54 PM 13.1 °F 0.1 °F 5.0 °F 70% 30.46 in 7.0 mi NW 10.4 mph - N/A Snow Light Snow